If you wish to contribute or participate in the discussions about articles you are invited to join SKYbrary as a registered user

 Actions

Adrar/Touat-Cheikh Sidi Mohamed Belkebir Airport

From SKYbrary Wiki

DAUA
Airport
ICAO: DAUA – IATA: AZR
Summary
Name Adrar/Touat-Cheikh Sidi Mohamed Belkebir Airport
Region Africa
Territory Algeria DZ.gif
Location Adrar, Adrar
Serving Adrar
Elevation 280.111 m
919 ft
919 ft280.111 m
Coordinates 27° 50' 21.00" N, 0° 11' 7.00" W
Runways
Designator Length Width Surface ROPS
4/22 3000 m9,842.52 ft
45 m147.638 ft
ASP /


METAR
Observation DAUA 061400Z 30022KT 6000 DRSA NSC 39/05 Q1014
Station Adrar
Date/Time 06 June 2020 14:00:00
Wind direction 300°
Wind speed 22 kts
Lowest cloud amount nil significant cloud
Temperature 39°C
Dew point 5°C
Humidity 12%
QNH 1014 hPa
Weather condition n/a

Adrar/Touat-Cheikh Sidi Mohamed Belkebir Airport

ICAO: DAUA IATA: AZR

Description

Touat-Cheikh Sidi Mohamed Belkebir Airport is a public airport located 6 nm southeast of Adrar, the capital of the Adrar province in Algeria.

Maps

Terrain

Loading map...

Airport Layout

Loading map...


Accidents & Serious Incidents at or in vicinity of DAUA

None on SKYbrary